Regional Weather Roundup
Issued by NWS

Home | Current Version | Previous Version | Text Only | Print | Product List | Glossary On
Versions: 1 2 3 4 5 6 7 8 9 10 11 12 13 14 15 16 17 18 19 20 21 22 23 24 25 26 27 28 29 30 31 32 33 34 35 36 37 38 39 40 41 42 43 44 45 46 47 48 49 50
536
ASUS44 KJAN 220003
RWRMS

MISSISSIPPI HOURLY WEATHER ROUNDUP
NATIONAL WEATHER SERVICE JACKSON MS
700 PM CDT SUN SEP 21 2014

NOTE: "FAIR: INDICATES FEW OR NO CLOUDS BELOW 12,000 FEET WITH NO
SIGNIFICANT WEATHER AND/OR OBSTRUCTIONS TO VISIBILITY.

MSZ001>002-007>008-010>013-018>021-025>028-034>036-220100-
NORTHWEST MISSISSIPPI

CITY           SKY/WX    TMP DP  RH WIND       PRES   REMARKS
CLARKSDALE     FAIR      82  72  69 CALM      29.98R
CLEVELAND      FAIR      85  71  61 NW7       29.96R HX  90
GREENWOOD      MOCLDY    79  71  76 CALM      29.95S
6HR MIN TEMP:  79; 6HR MAX TEMP:  93;

GREENVILLE     CLEAR     85  65  51 NW3       29.95S
6HR MIN TEMP:  85; 6HR MAX TEMP:  94;

GRENADA        CLOUDY    79  70  73 W3        29.97R
OLIVE BRANCH   PTCLDY    79  70  73 N7        29.98R
OXFORD         MOCLDY    77  72  83 W3        29.98S
TUNICA         CLEAR     81  68  65 N9        29.98R
$$

MSZ003>006-009-014>017-022>024-029>033-037>039-220100-
NORTHEAST MISSISSIPPI

CITY           SKY/WX    TMP DP  RH WIND       PRES   REMARKS
COLUMBUS AFB   MOCLDY    82  69  66 W2        29.95F
6HR MIN TEMP:  82; 6HR MAX TEMP:  90;

CORINTH        FAIR      79  68  69 N6        29.96R
GOLDN TRIANGLE MOCLDY    88  64  45 CALM      29.97R
STARKVILLE     FAIR      79  68  69 CALM      29.96S
TUPELO         MOCLDY    83  70  64 NW3       29.95S
6HR MIN TEMP:  83; 6HR MAX TEMP:  91;

$$

MSZ040-058-220100-
CENTRAL MISSISSIPPI

CITY           SKY/WX    TMP DP  RH WIND       PRES   REMARKS
JACKSON INTL   PTCLDY    82  69  64 CALM      29.98S
6HR MIN TEMP:  82; 6HR MAX TEMP:  92;

JACKSON HAWKNS CLEAR     84  67  56 CALM      29.98S
6HR MIN TEMP:  84; 6HR MAX TEMP:  93;

MERIDIAN KEY   CLEAR     82  66  58 SW5       29.98R
6HR MIN TEMP:  82; 6HR MAX TEMP:  91;

MERIDIAN NAS   MOCLDY    81  67  62 SW5       29.97S
6HR MIN TEMP:  81; 6HR MAX TEMP:  91;

RAYMOND        FAIR      79  73  83 CALM      29.98S
VICKSBURG      PTCLDY    83  68  60 S5        29.97R
6HR MIN TEMP:  83; 6HR MAX TEMP:  93;

$$

MSZ059>079-220100-
SOUTH MISSISSIPPI

CITY           SKY/WX    TMP DP  RH WIND       PRES   REMARKS
BROOKHAVEN     FAIR      82  66  57 CALM      30.01R
COLUMBIA       FAIR      77  70  78 CALM      29.98R
HATTIESBURG    CLEAR     81  69  67 CALM      29.99R
6HR MIN TEMP:  81; 6HR MAX TEMP:  91;

MCCOMB         CLEAR     83  66  56 CALM      29.99R
6HR MIN TEMP:  83; 6HR MAX TEMP:  90;

NATCHEZ        CLEAR     81  72  74 CALM      29.99S
6HR MIN TEMP:  81; 6HR MAX TEMP:  88;

PINE BELT      CLEAR    N/A N/A N/A N3        30.01R
$$

MSZ080>082-220100-
COASTAL MISSISSIPPI

CITY           SKY/WX    TMP DP  RH WIND       PRES   REMARKS
BILOXI         CLEAR     82  69  66 S6        29.98S
6HR MIN TEMP:  82; 6HR MAX TEMP:  89;

PASCAGOULA     CLEAR     78  70  76 S3        29.98S
6HR MIN TEMP:  78; 6HR MAX TEMP:  89;

GULFPORT       CLEAR     81  70  69 CALM      29.98R
6HR MIN TEMP:  81; 6HR MAX TEMP:  87;

$$



USA.gov is the U.S. government's official web portal to all federal, state and local government web resources and services.